Total_Precipitation_Accumulation
0.00 0.01 0.01 0.02 0.02 0.03 0.06 0.09 0.18 0.23 0.17 0.18 0.33 0.51 0.65 0.74 0.96 1.10 1.09 1.05 1.08 1.37 1.78 1.98 2.26 2.66 3.39 4.05 4.66 4.76 4.94 4.39 3.71 3.16 2.76 2.59 2.35 2.06 2.00 1.87 1.68 1.55 1.38 1.32
0.02 0.04 0.03 0.02 0.03 0.05 0.09 0.12 0.20 0.22 0.15 0.16 0.33 0.60 0.78 0.86 0.83 0.90 0.92 0.94 0.98 1.38 1.80 2.19 2.72 3.05 3.05 3.51 4.16 4.17 3.80 3.49 3.04 2.56 2.35 2.18 2.07 1.82 1.63 1.45 1.34 1.21 1.12 1.13
0.04 0.05 0.03 0.03 0.05 0.10 0.12 0.14 0.18 0.16 0.15 0.21 0.39 0.74 1.02 0.96 0.69 0.63 0.68 0.72 0.86 1.21 1.63 2.04 2.53 2.92 2.86 3.16 3.25 2.82 2.51 2.47 2.38 2.12 1.99 1.94 1.88 1.71 1.40 1.12 0.98 0.92 0.88 0.85
0.03 0.03 0.03 0.04 0.06 0.07 0.08 0.08 0.07 0.07 0.13 0.28 0.42 0.93 1.31 1.11 0.82 0.66 0.64 0.74 0.81 0.91 1.09 1.38 1.66 2.07 2.31 2.36 2.23 2.06 1.95 1.91 2.03 1.99 1.78 1.63 1.35 1.22 1.04 0.86 0.83 0.84 0.77 0.71
0.03 0.03 0.03 0.04 0.05 0.05 0.05 0.04 0.05 0.08 0.12 0.27 0.47 0.79 1.17 1.16 1.10 0.93 0.76 0.75 0.67 0.64 0.73 0.89 0.98 1.21 1.49 1.65 1.65 1.54 1.74 1.82 1.83 1.79 1.72 1.65 1.39 1.18 1.05 0.99 1.00 0.92 0.83 0.72
0.05 0.05 0.04 0.03 0.04 0.04 0.04 0.05 0.12 0.25 0.37 0.69 0.68 0.72 1.05 1.01 0.96 0.93 0.73 0.58 0.48 0.42 0.53 0.69 0.71 0.77 0.91 1.00 1.07 1.14 1.35 1.54 1.58 1.54 1.54 1.54 1.42 1.26 1.09 0.99 0.93 0.83 0.78 0.71
0.14 0.12 0.09 0.05 0.05 0.05 0.05 0.09 0.32 0.69 1.00 1.16 0.72 0.69 0.88 0.76 0.77 0.82 0.60 0.36 0.30 0.32 0.37 0.47 0.49 0.50 0.57 0.62 0.70 0.79 0.96 1.11 1.22 1.27 1.29 1.31 1.40 1.26 1.05 0.86 0.83 0.75 0.65 0.61
0.15 0.18 0.10 0.05 0.05 0.06 0.06 0.07 0.19 0.34 0.49 0.69 0.73 1.08 1.01 0.63 0.59 0.50 0.30 0.18 0.18 0.26 0.26 0.28 0.30 0.33 0.38 0.38 0.47 0.56 0.65 0.75 0.86 1.04 1.18 1.10 1.17 1.06 0.92 0.95 0.88 0.75 0.60 0.60
0.07 0.06 0.05 0.05 0.05 0.07 0.05 0.05 0.06 0.10 0.15 0.43 0.81 1.16 0.93 0.50 0.45 0.30 0.19 0.13 0.14 0.15 0.18 0.18 0.19 0.18 0.23 0.27 0.32 0.42 0.55 0.68 0.72 0.79 0.96 1.03 1.00 0.96 0.95 0.97 0.93 0.81 0.71 0.61
0.04 0.02 0.04 0.05 0.05 0.07 0.06 0.06 0.06 0.07 0.15 0.33 0.66 1.01 1.03 0.72 0.51 0.31 0.20 0.17 0.23 0.18 0.21 0.18 0.14 0.14 0.19 0.24 0.29 0.40 0.51 0.66 0.78 0.78 0.77 0.82 0.96 0.99 1.04 1.01 0.86 0.79 0.74 0.69
0.04 0.02 0.03 0.04 0.06 0.08 0.08 0.08 0.09 0.10 0.12 0.21 0.49 0.72 0.62 0.58 0.40 0.27 0.24 0.27 0.21 0.17 0.19 0.16 0.12 0.14 0.19 0.23 0.28 0.37 0.48 0.71 0.85 0.76 0.76 0.85 0.93 0.98 1.00 1.12 1.03 0.87 0.80 0.74
0.05 0.03 0.04 0.08 0.11 0.10 0.10 0.10 0.11 0.14 0.16 0.17 0.26 0.45 0.38 0.41 0.32 0.30 0.24 0.25 0.20 0.18 0.18 0.19 0.16 0.16 0.21 0.27 0.32 0.40 0.49 0.65 0.74 0.74 0.79 0.84 0.88 0.91 0.90 0.94 0.99 0.98 0.86 0.76
0.06 0.05 0.07 0.21 0.31 0.22 0.14 0.10 0.11 0.13 0.13 0.16 0.30 0.47 0.39 0.39 0.33 0.25 0.20 0.20 0.23 0.25 0.23 0.22 0.21 0.26 0.27 0.31 0.39 0.45 0.54 0.61 0.67 0.79 0.82 0.78 0.78 0.74 0.75 0.79 0.84 0.91 0.95 0.94
0.07 0.06 0.08 0.22 0.33 0.35 0.26 0.17 0.16 0.13 0.14 0.17 0.24 0.41 0.38 0.45 0.41 0.26 0.26 0.31 0.31 0.31 0.26 0.22 0.24 0.27 0.33 0.37 0.42 0.49 0.57 0.64 0.70 0.71 0.70 0.70 0.73 0.75 0.81 0.84 0.86 0.89 0.91 0.96
0.09 0.07 0.05 0.09 0.17 0.20 0.21 0.20 0.18 0.13 0.11 0.17 0.22 0.33 0.41 0.40 0.44 0.35 0.36 0.47 0.51 0.35 0.24 0.21 0.22 0.28 0.39 0.46 0.45 0.48 0.56 0.65 0.70 0.75 0.72 0.67 0.70 0.76 0.80 0.82 0.84 0.84 0.86 0.87
0.15 0.11 0.10 0.10 0.13 0.14 0.15 0.17 0.15 0.11 0.09 0.09 0.17 0.31 0.37 0.41 0.45 0.41 0.37 0.38 0.50 0.41 0.29 0.26 0.25 0.27 0.35 0.42 0.43 0.41 0.46 0.56 0.67 0.75 0.80 0.82 0.79 0.75 0.79 0.83 0.82 0.84 0.88 0.97
0.28 0.22 0.21 0.21 0.16 0.18 0.24 0.19 0.16 0.13 0.11 0.12 0.22 0.33 0.43 0.47 0.43 0.43 0.44 0.38 0.39 0.35 0.29 0.31 0.32 0.33 0.36 0.40 0.39 0.40 0.41 0.53 0.73 0.83 0.84 0.91 0.99 0.91 0.97 1.00 0.96 0.96 1.00 1.10
0.37 0.38 0.31 0.28 0.31 0.37 0.27 0.20 0.19 0.21 0.22 0.21 0.24 0.35 0.52 0.61 0.49 0.43 0.46 0.47 0.41 0.32 0.30 0.32 0.31 0.31 0.34 0.36 0.40 0.41 0.44 0.52 0.71 0.87 0.92 1.06 1.19 1.11 1.12 1.12 1.11 1.16 1.25 1.29
0.38 0.46 0.46 0.42 0.43 0.44 0.35 0.30 0.30 0.37 0.44 0.38 0.41 0.54 0.57 0.49 0.44 0.45 0.43 0.40 0.37 0.33 0.32 0.31 0.33 0.34 0.35 0.40 0.43 0.47 0.59 0.70 0.81 0.95 1.09 1.24 1.37 1.42 1.38 1.33 1.41 1.46 1.50 1.56
0.34 0.45 0.54 0.55 0.61 0.68 0.59 0.45 0.40 0.51 0.79 0.63 0.52 0.57 0.53 0.49 0.59 0.58 0.42 0.37 0.32 0.30 0.31 0.34 0.39 0.40 0.39 0.44 0.51 0.58 0.73 0.91 1.03 1.08 1.12 1.22 1.39 1.48 1.50 1.48 1.60 1.72 1.75 1.77
0.51 0.52 0.56 0.62 0.72 0.69 0.60 0.51 0.53 0.90 1.16 0.80 0.68 0.72 0.76 0.75 0.69 0.59 0.44 0.42 0.38 0.32 0.34 0.38 0.43 0.50 0.55 0.60 0.70 0.82 0.91 1.01 1.04 1.04 1.09 1.18 1.41 1.68 1.71 1.76 1.81 1.89 1.92 1.94
0.67 0.68 0.67 0.73 0.94 1.01 0.66 0.59 0.89 1.14 1.03 0.99 0.89 0.89 0.89 0.77 0.60 0.50 0.44 0.44 0.38 0.36 0.39 0.41 0.45 0.50 0.58 0.68 0.84 0.94 0.97 0.99 1.04 1.07 1.14 1.28 1.53 1.63 1.72 1.87 1.92 2.05 2.14 2.10
0.72 0.82 0.82 0.90 1.09 0.99 0.79 0.84 0.87 0.93 1.00 0.99 0.86 0.82 0.80 0.75 0.64 0.55 0.48 0.46 0.44 0.42 0.43 0.48 0.50 0.54 0.62 0.73 0.91 1.05 1.04 1.06 1.06 1.07 1.12 1.23 1.37 1.47 1.60 1.67 1.66 1.74 1.85 1.86
0.77 0.69 0.88 1.16 1.16 1.02 0.89 0.83 0.82 0.76 0.74 0.73 0.68 0.60 0.59 0.58 0.53 0.45 0.40 0.44 0.51 0.57 0.54 0.56 0.56 0.59 0.64 0.69 0.86 0.99 1.02 1.06 1.07 1.03 1.00 1.09 1.27 1.34 1.41 1.52 1.55 1.64 1.70 1.74
0.87 0.81 0.99 1.29 1.30 1.16 1.07 0.95 0.93 0.78 0.72 0.62 0.58 0.55 0.53 0.45 0.43 0.39 0.35 0.35 0.40 0.47 0.48 0.49 0.51 0.55 0.58 0.64 0.81 0.95 0.98 1.04 1.08 1.05 1.01 1.05 1.16 1.25 1.33 1.44 1.53 1.55 1.58 1.56
0.71 0.87 1.08 1.22 1.13 1.10 1.13 0.90 0.88 0.90 0.78 0.65 0.59 0.54 0.49 0.42 0.38 0.34 0.33 0.32 0.32 0.39 0.46 0.48 0.52 0.53 0.52 0.58 0.69 0.79 0.96 1.12 1.16 1.10 1.03 1.01 1.03 1.13 1.20 1.28 1.28 1.20 1.19 1.16